This demonstration page uses our WeatherBlox Daily Observations layout. Learn more.

39.08367, -84.50855

Hourly Observations for January 2, 2019

Temp ( °F °C ) Dew Point ( °F °C ) Humidity (%) Winds ( mph kmh ) Pressure ( in mb ) Visibility ( mi km ) Precip ( " mm )
12:53 am 00:53 Cloudy 41 5 36 2.2 82 82 N 6 9 30.27 1025 10 16.09344 0 0
1:11 am 01:11 Cloudy 40 4.4 36 2.2 86 86 N 6 9 30.3 1026 8 12.874752 0 0
1:40 am 01:40 Cloudy with Mist and Fog 40 4.4 37 2.8 89 89 NNE 5 7 30.27 1025 6 9.656064 0 0
1:53 am 01:53 Cloudy with Mist and Fog 39 3.9 37 2.8 93 93 NNE 3 6 30.27 1025 5 8.04672 0 0
2:53 am 02:53 Cloudy 39 3.9 37 2.8 93 93 Calm 30.3 1026 7 11.265408 0 0
3:53 am 03:53 Cloudy 40 4.4 37 2.8 89 89 Calm 30.27 1025 8 12.874752 0 0
4:53 am 04:53 Cloudy 39 3.9 36 2.2 89 89 Calm 30.24 1024 10 16.09344 0 0
5:08 am 05:08 Cloudy 39 3.9 37 2.8 93 93 Calm 30.24 1024 9 14.484096 0 0
5:42 am 05:42 Cloudy 40 4.4 36 2.2 86 86 Calm 30.24 1024 9 14.484096 0 0
5:53 am 05:53 Cloudy 39 3.9 36 2.2 89 89 Calm 30.24 1024 9 14.484096 0 0
6:53 am 06:53 Cloudy 39 3.9 37 2.8 93 93 Calm 30.24 1024 8 12.874752 0 0
7:00 am 07:00 Cloudy 39 3.9 37 2.8 93 93 Calm 30.24 1024 8 12.874752 0 0
7:53 am 07:53 Cloudy 40 4.4 37 2.8 89 89 Calm 30.24 1024 8 12.874752 0 0
8:18 am 08:18 Cloudy 40 4.4 37 2.8 89 89 Calm 30.27 1025 9 14.484096 0 0
8:53 am 08:53 Cloudy 40 4.4 37 2.8 89 89 Calm 30.27 1025 8 12.874752 0 0
9:53 am 09:53 Cloudy 41 5 37 2.8 86 86 S 3 6 30.24 1024 8 12.874752 0 0
10:00 am 10:00 Cloudy 41 5 37 2.8 86 86 SSW 5 7 30.27 1025 10 16.09344 0 0
10:14 am 10:14 Cloudy 41 5 38 3.3 89 89 SSW 5 7 30.27 1025 9 14.484096 0 0
10:21 am 10:21 Cloudy 41 5 38 3.3 89 89 SW 3 6 30.27 1025 9 14.484096 0 0
10:28 am 10:28 Cloudy 41 5 38 3.3 89 89 Calm 30.27 1025 9 14.484096 0 0
10:53 am 10:53 Cloudy 42 5.6 38 3.3 85 85 S 5 7 30.24 1024 7 11.265408 0 0
11:53 am 11:53 Cloudy 42 5.6 39 3.9 89 89 SSW 6 9 30.21 1023 8 12.874752 0 0
12:53 pm 12:53 Cloudy with Mist and Fog 42 5.6 40 4.4 92 92 SSW 6 9 30.15 1021 4 6.437376 0 0
1:53 pm 13:53 Cloudy 43 6.1 39 3.9 86 86 SSW 6 9 30.12 1020 10 16.09344 0.001 0.001
2:53 pm 14:53 Cloudy 44 6.7 37 2.8 76 76 SW 10 17 30.09 1019 10 16.09344 0 0
3:53 pm 15:53 Cloudy 44 6.7 37 2.8 76 76 SW 9 15 30.06 1018 10 16.09344 0 0
4:53 pm 16:53 Cloudy 43 6.1 37 2.8 80 80 SW 7 11 30.06 1018 10 16.09344 0 0
5:53 pm 17:53 Cloudy 43 6.1 35 1.7 74 74 SW 14 22 30.03 1017 10 16.09344 0 0
6:53 pm 18:53 Cloudy 42 5.6 35 1.7 76 76 SSW 13 20 30.06 1018 10 16.09344 0 0
7:53 pm 19:53 Cloudy 42 5.6 36 2.2 79 79 SW 8 13 30.06 1018 10 16.09344 0 0
8:53 pm 20:53 Cloudy 43 6.1 35 1.7 74 74 W 12 19 30.06 1018 10 16.09344 0 0
9:53 pm 21:53 Cloudy 41 5 34 1.1 76 76 W 12 19 30.06 1018 10 16.09344 0 0
10:53 pm 22:53 Cloudy 40 4.4 34 1.1 79 79 W 14 22 30.09 1019 10 16.09344 0 0
11:53 pm 23:53 Cloudy 39 3.9 33 0.6 79 79 WNW 9 15 30.09 1019 10 16.09344 0 0

Powered by AerisWeather